Location: Unspecified
(0.0000°N, 0.0000°E)
Time: 04:54:16
(UTC+00:00)

OTV 5 (USA 277) - Pass Details

Date: 12 January 2018
Orbit: 404 x 417 km, 43.0° (Epoch: 07 September)

Event Time Altitude Azimuth Distance (km) Brightness Sun altitude
Rises 19:20:28 0° 201° (SSW) 2,350 ? -16.7°
Reaches altitude 10° 19:23:01 10° 182° (S) 1,484 ? -17.3°
Enters shadow 19:25:15 18° 140° (SE) 1,078 ? -17.8°
